Home > Weather > Truro > Past weeks

Flag for United Kingdom Past Weather in Truro, England, United Kingdom — Yesterday and Last 2 Weeks

Now
64 °F

Sunny.


Feels Like: 64 °F
Forecast: 54 / 65 °F
Wind: 13 mph from Northwest

Location: Culdrose

Current Time: Aug 25, 2016 at 2:38:37 PM

Latest Report: Aug 25, 2016 at 1:50 PM


Visibility: 10 mi

Pressure: 30.01 "Hg

Humidity: 73%

Dew Point: 55 °F

Location of TruroLocation

Past Weather in Truro — Graph

°F

Truro Temperature Yesterday

Maximum temperature yesterday: 68 °F (at 3:50 PM)
Minimum temperature yesterday: 59 °F (at 2:50 AM)
Average temperature yesterday: 61 °F

High & Low Weather Summary for the Past Weeks

 TemperatureHumidityPressure
High72 °F (Aug 23, 11:50 AM)100% (Aug 13, 6:50 AM)30.36 "Hg (Aug 13, 6:50 AM)
Low50 °F (Aug 14, 5:50 AM)56% (Aug 14, 12:50 PM)29.56 "Hg (Aug 19, 7:50 AM)
Average61 °F86%30.07 "Hg
* Reported Aug 10 12:50 PM — Aug 25 12:50 PM, Truro, Weather by CustomWeather, © 2016

Note: Actual official high and low records may vary slightly from our data, if they occured in-between our weather recording intervals... More about our weather records

Advertising

Truro Weather History for the Previous 24 Hours

Scroll right to see more
 ConditionsComfort  
Time TempWeatherWind HumidityBarometerVisibility
12:50 PM
Thu, Aug 25
64 °FSunny.13 mph73%30.01 "Hg10 mi
11:50 AM66 °FSunny.7 mph73%30.01 "Hg10 mi
10:50 AM64 °FSunny.10 mph73%30.01 "Hg10 mi
9:50 AM64 °FSunny.10 mph73%30.01 "Hg10 mi
8:50 AM61 °FSunny.8 mph83%30.01 "Hg10 mi
6:50 AM57 °FPassing clouds.13 mph88%30.01 "HgN/A
5:50 AM57 °FPassing clouds.9 mph88%30.01 "HgN/A
4:50 AM57 °FPassing clouds.10 mph94%30.01 "HgN/A
3:50 AM57 °FClear.12 mph94%30.04 "HgN/A
2:50 AM59 °FPassing clouds.13 mph88%30.04 "HgN/A
1:50 AM59 °FPassing clouds.6 mph88%30.07 "HgN/A
12:50 AM59 °FPassing clouds.7 mph82%30.07 "HgN/A
11:50 PM
Wed, Aug 24
59 °FPartly cloudy.12 mph82%30.07 "HgN/A
10:50 PM59 °FPassing clouds.12 mph82%30.07 "HgN/A
9:50 PM59 °FPassing clouds.8 mph82%30.09 "HgN/A
8:50 PM59 °FBroken clouds.10 mph82%30.09 "HgN/A
7:50 PM61 °FPartly sunny.12 mph77%30.09 "HgN/A
6:50 PM63 °FBroken clouds.12 mph77%30.09 "HgN/A
5:50 PM63 °FBroken clouds.15 mph77%30.07 "HgN/A
4:50 PM66 °FScattered clouds.15 mph73%30.07 "HgN/A
3:50 PM68 °FScattered clouds.12 mph73%30.15 "HgN/A
2:50 PM64 °FPartly sunny.14 mph78%30.12 "HgN/A
Weather by CustomWeather, © 2016

See weather overviewHow to use our weather pages